Location: BAF
(53.9483°N, 27.7497°E)
Time: 23:44:52
(UTC+02:00)

ISS - Pass Details

Date: 02 December 2020
Orbit: 418 x 419 km, 51.6° (Epoch: 16 January)

Event Time Altitude Azimuth Distance (km) Brightness Sun altitude
Rises 19:10:10 0° 278° (W) 2,369 1.3 -28.1°
Reaches altitude 10° 19:12:29 10° 265° (W) 1,502 0.0 -28.5°
Enters shadow 19:13:40 17° 250° (WSW) 1,132 -0.9 -28.6°
